Location: Bastelaar
(51.0950°N, 3.8602°E)
Time: 15:45:35
(UTC+00:00)

Sich 1 Rocket - Pass Details

Date: 18 November 2025
Orbit: 611 x 646 km, 82.5° (Epoch: 12 December)

Event Time Altitude Azimuth Distance (km) Brightness Sun altitude
Rises 18:06:42 0° 183° (S) 2,942 7.1 -20.7°
Reaches altitude 10° 18:08:56 10° 181° (S) 2,039 6.3 -21.0°
Maximum altitude 18:13:27 72° 98° (E) 684 3.5 -21.8°
Enters shadow 18:14:59 41° 24° (NNE) 945 4.2 -22.0°
